H1 CPF 2 NER 2023 10 11 9 284 01 glonass134 H2 1407501 9134 40315 2023 10 11 0 0 0 2023 10 14 23 45 0 900 1 1 0 0 0 1 H9 10 0 60228 0.00000 0 -23622146.350 -8070580.881 -5426451.993 10 0 60228 900.00000 0 -24099175.307 -8169541.903 -2292002.802 10 0 60228 1800.00000 0 -24215707.874 -8106483.483 886763.922 10 0 60228 2700.00000 0 -23952102.318 -7931080.164 4048394.197 10 0 60228 3600.00000 0 -23301153.492 -7696447.382 7131796.503 10 0 60228 4500.00000 0 -22268485.961 -7456680.490 10077405.556 10 0 60228 5400.00000 0 -20872433.200 -7264362.717 12828315.610 10 0 60228 6300.00000 0 -19143407.747 -7168145.861 15331362.924 10 0 60228 7200.00000 0 -17122787.829 -7210504.361 17538137.957 10 0 60228 8100.00000 0 -14861365.462 -7425756.258 19405909.238 10 0 60228 9000.00000 0 -12417418.734 -7838433.692 20898442.304 10 0 60228 9900.00000 0 -9854486.166 -8462071.413 21986698.834 10 0 60228 10800.00000 0 -7238933.196 -9298464.924 22649402.989 10 0 60228 11700.00000 0 -4637409.395 -10337430.868 22873464.058 10 0 60228 12600.00000 0 -2114299.823 -11557081.858 22654246.697 10 0 60228 13500.00000 0 270725.416 -12924606.949 21995682.440 10 0 60228 14400.00000 0 2464962.847 -14397528.013 20910218.755 10 0 60228 15300.00000 0 4424635.427 -15925382.388 19418604.624 10 0 60228 16200.00000 0 6116478.837 -17451763.982 17549514.572 10 0 60228 17100.00000 0 7518887.533 -18916639.392 15339016.107 10 0 60228 18000.00000 0 8622571.637 -20258843.188 12829888.815 10 0 60228 18900.00000 0 9430696.047 -21418647.995 10070806.517 10 0 60228 19800.00000 0 9958494.864 -22340300.792 7115397.142 10 0 60228 20700.00000 0 10232376.569 -22974417.257 4021198.064 10 0 60228 21600.00000 0 10288557.443 -23280131.247 848527.391 10 0 60228 22500.00000 0 10171281.329 -23226906.212 -2340705.937 10 0 60228 23400.00000 0 9930702.106 -22795929.545 -5484228.456 10 0 60228 24300.00000 0 9620520.293 -21981028.520 -8520639.017 10 0 60228 25200.00000 0 9295476.180 -20789067.196 -11390629.721 10 0 60228 26100.00000 0 9008808.309 -19239806.187 -14038164.753 10 0 60228 27000.00000 0 8809787.664 -17365230.613 -16411591.983 10 0 60228 27900.00000 0 8741434.470 -15208374.664 -18464663.863 10 0 60228 28800.00000 0 8838516.256 -12821692.996 -20157446.454 10 0 60228 29700.00000 0 9125913.237 -10265048.565 -21457098.266 10 0 60228 30600.00000 0 9617420.784 -7603402.627 -22338503.768 10 0 60228 31500.00000 0 10315039.439 -4904304.955 -22784749.880 10 0 60228 32400.00000 0 11208781.756 -2235290.145 -22787437.342 10 0 60228 33300.00000 0 12277002.893 338710.903 -22346822.441 10 0 60228 34200.00000 0 13487239.582 2757836.621 -21471788.127 10 0 60228 35100.00000 0 14797520.618 4969535.833 -20179646.918 10 0 60228 36000.00000 0 16158092.368 6930492.717 -18495781.218 10 0 60228 36900.00000 0 17513485.698 8608157.878 -16453129.644 10 0 60228 37800.00000 0 18804836.811 9981824.735 -14091530.683 10 0 60228 38700.00000 0 19972364.408 11043209.610 -11456937.432 10 0 60228 39600.00000 0 20957899.500 11796514.611 -8600519.351 10 0 60228 40500.00000 0 21707362.508 12257973.887 -5577668.747 10 0 60228 41400.00000 0 22173084.907 12454905.020 -2446931.209 10 0 60228 42300.00000 0 22315879.351 12424307.532 731119.673 10 0 60228 43200.00000 0 22106772.963 12211068.814 3895042.187 10 0 60228 44100.00000 0 21528332.425 11865853.621 6983699.572 10 0 60228 45000.00000 0 20575526.363 11442765.871 9937424.739 10 0 60228 45900.00000 0 19256089.478 10996880.528 12699155.558 10 0 60228 46800.00000 0 17590373.130 10581748.338 15215520.307 10 0 60228 47700.00000 0 15610687.950 10246977.126 17437853.778 10 0 60228 48600.00000 0 13360164.535 10035990.110 19323125.930 10 0 60228 49500.00000 0 10891177.763 9984054.419 20834766.374 10 0 60228 50400.00000 0 8263397.939 10116662.117 21943369.741 10 0 60228 51300.00000 0 5541547.106 10448331.755 22627268.841 10 0 60228 52200.00000 0 2792950.978 10981881.547 22872964.597 10 0 60228 53100.00000 0 84985.583 11708206.129 22675403.920 10 0 60228 54000.00000 0 -2517477.588 12606568.397 22038099.120 10 0 60228 54900.00000 0 -4954523.551 13645396.713 20973084.952 10 0 60228 55800.00000 0 -7173441.957 14783556.808 19500712.171 10 0 60228 56700.00000 0 -9130678.220 15972047.634 17649279.360 10 0 60228 57600.00000 0 -10793406.030 17156052.286 15454507.865 10 0 60228 58500.00000 0 -12140654.750 18277259.385 12958867.866 10 0 60228 59400.00000 0 -13163943.411 19276358.121 10210766.897 10 0 60228 60300.00000 0 -13867393.526 20095601.772 7263615.255 10 0 60228 61200.00000 0 -14267314.914 20681330.616 4174785.933 10 0 60228 62100.00000 0 -14391281.389 20986345.949 1004489.430 10 0 60228 63000.00000 0 -14276735.226 20972032.607 -2185413.792 10 0 60228 63900.00000 0 -13969180.034 20610137.584 -5332638.512 10 0 60228 64800.00000 0 -13520039.833 19884126.918 -8375711.722 10 0 60228 65700.00000 0 -12984276.888 18790061.106 -11255194.983 10 0 60228 66600.00000 0 -12417871.582 17336950.193 -13914865.902 10 0 60228 67500.00000 0 -11875273.600 15546572.386 -16302833.553 10 0 60228 68400.00000 0 -11406934.811 13452763.339 -18372564.275 10 0 60228 69300.00000 0 -11057030.358 11100206.301 -20083796.564 10 0 60228 70200.00000 0 -10861465.884 8542774.690 -21403326.588 10 0 60228 71100.00000 0 -10846255.899 5841497.748 -22305649.062 10 0 60228 72000.00000 0 -11026341.854 3062235.686 -22773441.575 10 0 60228 72900.00000 0 -11404899.081 273162.523 -22797884.123 10 0 60228 73800.00000 0 -11973160.573 -2457837.639 -22378809.166 10 0 60228 74700.00000 0 -12710763.335 -5065752.268 -21524681.026 10 0 60228 75600.00000 0 -13586600.853 -7490893.037 -20252406.935 10 0 60228 76500.00000 0 -14560143.951 -9681118.689 -18586985.131 10 0 60228 77400.00000 0 -15583172.874 -11593737.578 -16560998.533 10 0 60228 78300.00000 0 -16601846.510 -13197013.246 -14213965.115 10 0 60228 79200.00000 0 -17559021.056 -14471213.355 -11591558.665 10 0 60228 80100.00000 0 -18396720.427 -15409161.348 -8744715.710 10 0 60228 81000.00000 0 -19058654.957 -16016271.039 -5728646.283 10 0 60228 81900.00000 0 -19492683.288 -16310065.572 -2601767.615 10 0 60228 82800.00000 0 -19653115.152 -16319203.352 575418.878 10 0 60228 83700.00000 0 -19502759.571 -16082053.604 3741486.310 10 0 60228 84600.00000 0 -19014633.763 -15644882.454 6835255.259 10 0 60228 85500.00000 0 -18173262.092 -15059726.071 9796959.423 10 0 60229 0.00000 0 -16975511.382 -14382039.982 12569382.616 10 0 60229 900.00000 0 -15430927.023 -13668222.078 15098948.110 10 0 60229 1800.00000 0 -13561556.954 -12973113.074 17336737.091 10 0 60229 2700.00000 0 -11401267.534 -12347576.798 19239423.020 10 0 60229 3600.00000 0 -8994579.475 -11836261.451 20770101.348 10 0 60229 4500.00000 0 -6395069.371 -11475634.459 21899001.057 10 0 60229 5400.00000 0 -3663400.591 -11292372.866 22604064.594 10 0 60229 6300.00000 0 -865062.408 -11302176.875 22871385.085 10 0 60229 7200.00000 0 1932091.621 -11509057.091 22695491.862 10 0 60229 8100.00000 0 4660406.435 -11905126.787 22079477.775 10 0 60229 9000.00000 0 7254985.129 -12470909.890 21034964.271 10 0 60229 9900.00000 0 9656140.561 -13176154.128 19581902.937 10 0 60229 10800.00000 0 11811637.684 -13981117.585 17748215.157 10 0 60229 11700.00000 0 13678633.230 -14838276.881 15569274.513 10 0 60229 12600.00000 0 15225231.150 -15694386.867 13087239.867 10 0 60229 13500.00000 0 16431587.703 -16492806.225 10350250.207 10 0 60229 14400.00000 0 17290518.594 -17175991.153 7411495.625 10 0 60229 15300.00000 0 17807581.346 -17688051.248 4328181.874 10 0 60229 16200.00000 0 18000628.455 -17977258.132 1160408.767 10 0 60229 17100.00000 0 17898849.658 -17998398.583 -2030014.926 10 0 60229 18000.00000 0 17541343.876 -17714869.986 -5180795.459 10 0 60229 18900.00000 0 16975282.075 -17100426.679 -8230391.137 10 0 60229 19800.00000 0 16253740.242 -16140500.619 -11119235.991 10 0 60229 20700.00000 0 15433296.276 -14833038.241 -13790923.836 10 0 60229 21600.00000 0 14571494.828 -13188816.475 -16193327.456 10 0 60229 22500.00000 0 13724289.784 -11231223.535 -18279629.258 10 0 60229 23400.00000 0 12943574.731 -8995513.441 -20009241.980 10 0 60229 24300.00000 0 12274907.462 -6527565.935 -21348600.861 10 0 60229 25200.00000 0 11755525.628 -3882204.613 -22271811.818 10 0 60229 26100.00000 0 11412737.528 -1121144.789 -22761143.615 10 0 60229 27000.00000 0 11262755.307 1689342.048 -22807355.549 10 0 60229 27900.00000 0 11310018.480 4480948.873 -22409855.834 10 0 60229 28800.00000 0 11547034.457 7185933.342 -21576689.341 10 0 60229 29700.00000 0 11954740.599 9739689.461 -20324356.785 10 0 60229 30600.00000 0 12503370.346 12083184.557 -18677470.679 10 0 60229 31500.00000 0 13153784.812 14165161.579 -16668256.346 10 0 60229 32400.00000 0 13859212.006 15944017.217 -14335909.061 10 0 60229 33300.00000 0 14567319.190 17389280.241 -11725820.833 10 0 60229 34200.00000 0 15222530.357 18482631.357 -8888692.541 10 0 60229 35100.00000 0 15768491.142 19218425.022 -5879549.003 10 0 60229 36000.00000 0 16150577.787 19603694.391 -2756676.008 10 0 60229 36900.00000 0 16318345.368 19657641.683 419500.381 10 0 60229 37800.00000 0 16227813.391 19410637.418 3587571.258 10 0 60229 38700.00000 0 15843493.833 18902771.848 6686317.599 10 0 60229 39600.00000 0 15140077.482 18182020.004 9655876.754 10 0 60229 40500.00000 0 14103708.575 17302097.336 12438881.565 10 0 60229 41400.00000 0 12732794.570 16320095.242 14981551.603 10 0 60229 42300.00000 0 11038316.818 15293994.560 17234716.938 10 0 60229 43200.00000 0 9043628.176 14280159.837 19154756.163 10 0 60229 44100.00000 0 6783744.268 13330917.934 20704431.850 10 0 60229 45000.00000 0 4304155.680 12492321.053 21853608.242 10 0 60229 45900.00000 0 1659207.731 11802186.887 22579837.962 10 0 60229 46800.00000 0 -1089887.888 11288497.460 22868806.465 10 0 60229 47700.00000 0 -3877330.088 10968223.874 22714625.197 10 0 60229 48600.00000 0 -6635202.342 10846626.939 22119966.791 10 0 60229 49500.00000 0 -9296043.392 10917064.376 21096038.147 10 0 60229 50400.00000 0 -11795409.742 11161314.495 19662389.992 10 0 60229 51300.00000 0 -14074324.541 11550404.840 17846564.369 10 0 60229 52200.00000 0 -16081511.194 12045913.022 15683584.595 10 0 60229 53100.00000 0 -17775318.185 12601686.807 13215295.416 10 0 60229 54000.00000 0 -19125253.648 13165912.230 10489564.301 10 0 60229 54900.00000 0 -20113064.082 13683443.050 7559358.086 10 0 60229 55800.00000 0 -20733310.411 14098292.825 4481712.255 10 0 60229 56700.00000 0 -20993415.792 14356183.109 1316612.994 10 0 60229 57600.00000 0 -20913182.188 14407038.029 -1874185.418 10 0 60229 58500.00000 0 -20523795.687 14207317.135 -5028383.350 10 0 60229 59400.00000 0 -19866362.895 13722084.922 -8084372.867 10 0 60229 60300.00000 0 -18990041.296 12926726.591 -10982462.725 10 0 60229 61200.00000 0 -17949844.271 11808234.797 -13666064.972 10 0 60229 62100.00000 0 -16804215.707 10366010.903 -16082817.863 10 0 60229 63000.00000 0 -15612479.010 8612145.373 -18185621.324 10 0 60229 63900.00000 0 -14432270.488 6571164.709 -19933563.466 10 0 60229 64800.00000 0 -13317067.318 4279255.456 -21292719.370 10 0 60229 65700.00000 0 -12313915.589 1782998.284 -22236806.586 10 0 60229 66600.00000 0 -11461454.661 -862333.938 -22747685.124 10 0 60229 67500.00000 0 -10788320.712 -3594841.886 -22815693.312 10 0 60229 68400.00000 0 -10311995.485 -6348342.129 -22439814.526 10 0 60229 69300.00000 0 -10038146.869 -9054887.727 -21627673.269 10 0 60229 70200.00000 0 -9960486.697 -11647361.847 -20395362.535 10 0 60229 71100.00000 0 -10061149.185 -14062036.826 -18767107.613 10 0 60229 72000.00000 0 -10311571.477 -16240993.145 -16774774.507 10 0 60229 72900.00000 0 -10673836.896 -18134299.248 -14457233.872 10 0 60229 73800.00000 0 -11102422.423 -19701863.639 -11859593.878 10 0 60229 74700.00000 0 -11546275.426 -20914884.550 -9032317.613 10 0 60229 75600.00000 0 -11951131.421 -21756839.533 -6030242.492 10 0 60229 76500.00000 0 -12261975.094 -22223976.404 -2911520.662 10 0 60229 77400.00000 0 -12425541.280 -22325287.555 263499.377 10 0 60229 78300.00000 0 -12392751.423 -22081970.879 3433428.922 10 0 60229 79200.00000 0 -12120983.934 -21526401.456 6537011.591 10 0 60229 80100.00000 0 -11576084.047 -20700658.000 9514290.658 10 0 60229 81000.00000 0 -10734029.560 -19654666.043 12307750.032 10 0 60229 81900.00000 0 -9582183.033 -18444035.201 14863408.327 10 0 60229 82800.00000 0 -8120077.919 -17127680.124 17131846.396 10 0 60229 83700.00000 0 -6359704.991 -15765323.341 19069149.968 10 0 60229 84600.00000 0 -4325285.696 -14414982.867 20637750.503 10 0 60229 85500.00000 0 -2052539.775 -13130548.071 21807148.993 10 0 60230 0.00000 0 412524.725 -11959543.867 22554509.339 10 0 60230 900.00000 0 3015253.163 -10941175.074 22865110.251 10 0 60230 1800.00000 0 5694349.342 -10104733.819 22732645.620 10 0 60230 2700.00000 0 8384168.094 -9468434.631 22159367.908 10 0 60230 3600.00000 0 11017199.777 -9038728.308 21156069.162 10 0 60230 4500.00000 0 13526646.904 -8810123.967 19741898.582 10 0 60230 5400.00000 0 15848987.090 -8765528.443 17944017.876 10 0 60230 6300.00000 0 17926416.306 -8877090.585 15797098.745 10 0 60230 7200.00000 0 19709070.399 -9107516.619 13342670.114 10 0 60230 8100.00000 0 21156931.246 -9411802.468 10628325.868 10 0 60230 9000.00000 0 22241336.377 -9739310.675 7706807.151 10 0 60230 9900.00000 0 22946027.056 -10036104.203 4634976.401 10 0 60230 10800.00000 0 23267689.091 -10247437.525 1472703.117 10 0 60230 11700.00000 0 23215962.181 -10320297.976 -1718316.183 10 0 60230 12600.00000 0 22812916.446 -10205887.420 -4875779.337 10 0 60230 13500.00000 0 22092017.999 -9861936.368 -7938015.509 10 0 60230 14400.00000 0 21096627.657 -9254749.625 -10845211.363 10 0 60230 15300.00000 0 19878097.423 -8360894.017 -13540600.129 10 0 60230 16200.00000 0 18493546.854 -7168454.360 -15971588.178 10 0 60230 17100.00000 0 17003415.291 -5677802.682 -18090795.270 10 0 60230 18000.00000 0 15468895.393 -3901846.995 -19856986.817 10 0 60230 18900.00000 0 13949358.140 -1865748.614 -21235879.301 10 0 60230 19800.00000 0 12499879.184 393880.040 -22200803.053 10 0 60230 20700.00000 0 11168971.478 2830262.887 -22733210.063 10 0 60230 21600.00000 0 9996619.419 5388178.102 -22823018.007 10 0 60230 22500.00000 0 9012696.220 8006033.696 -22468785.307 10 0 60230 23400.00000 0 8235829.299 10618213.267 -21677715.555 10 0 60230 24300.00000 0 7672758.993 13157593.607 -20465493.066 10 0 60230 25200.00000 0 7318214.756 15558129.235 -18855954.563 10 0 60230 26100.00000 0 7155311.134 17757396.714 -16880604.999 10 0 60230 27000.00000 0 7156443.999 19698993.924 -14577988.320 10 0 60230 27900.00000 0 7284646.840 21334696.025 -11992926.430 10 0 60230 28800.00000 0 7495347.979 22626280.324 -9175641.887 10 0 60230 29700.00000 0 7738453.321 23546946.359 -6180781.697 10 0 60230 30600.00000 0 7960666.156 24082274.446 -3066361.144 10 0 60230 31500.00000 0 8107946.159 24230685.050 107352.177 10 0 60230 32400.00000 0 8128004.381 24003381.932 3278993.152 10 0 60230 33300.00000 0 7972729.968 23423783.122 6387271.362 10 0 60230 34200.00000 0 7600447.402 22526464.611 9372139.161 10 0 60230 35100.00000 0 6977910.262 21355661.413 12175934.443 10 0 60230 36000.00000 0 6081948.431 19963388.435 14744477.483 10 0 60230 36900.00000 0 4900699.849 18407258.925 17028102.188 10 0 60230 37800.00000 0 3434374.846 16748090.338 18982603.332 10 0 60230 38700.00000 0 1695520.009 15047395.967 20570082.780 10 0 60230 39600.00000 0 -291231.189 13364865.332 21759679.398 10 0 60230 40500.00000 0 -2489913.025 11755936.746 22528169.146 10 0 60230 41400.00000 0 -4854458.891 10269561.973 22860423.965 10 0 60230 42300.00000 0 -7330361.367 8946255.270 22749720.130 10 0 60230 43200.00000 0 -9856695.212 7816507.867 22197889.191 10 0 60230 44100.00000 0 -12368422.243 6899634.263 21215307.083 10 0 60230 45000.00000 0 -14798884.798 6203099.368 19820719.700 10 0 60230 45900.00000 0 -17082385.941 5722355.818 18040906.134 10 0 60230 46800.00000 0 -19156750.046 5441199.755 15910183.763 10 0 60230 47700.00000 0 -20965757.112 5332631.614 13469762.623 10 0 60230 48600.00000 0 -22461348.524 5360186.989 10766959.697 10 0 60230 49500.00000 0 -23605510.638 5479682.304 7854287.001 10 0 60230 50400.00000 0 -24371755.425 5641301.808 4788430.479 10 0 60230 51300.00000 0 -24746134.030 5791937.106 1629139.585 10 0 60230 52200.00000 0 -24727738.768 5877678.865 -1561950.108 10 0 60230 53100.00000 0 -24328670.897 5846353.146 -4722536.880 10 0 60230 54000.00000 0 -23573474.691 5649992.274 -7790889.712 10 0 60230 54900.00000 0 -22498061.508 5247132.693 -10707075.635 10 0 60230 55800.00000 0 -21148169.883 4604839.539 -13414151.226 10 0 60230 56700.00000 0 -19577427.916 3700369.541 -15859292.815 10 0 60230 57600.00000 0 -17845101.421 2522399.727 -17994841.462 10 0 60230 58500.00000 0 -16013624.788 1071768.434 -19779240.950 10 0 60230 59400.00000 0 -14146020.471 -638303.531 -21177849.770 10 0 60230 60300.00000 0 -12303317.256 -2582521.144 -22163611.188 10 0 60230 61200.00000 0 -10542076.865 -4724339.524 -22717568.876 10 0 60230 62100.00000 0 -8912132.985 -7017269.095 -22829219.123 10 0 60230 63000.00000 0 -7454636.970 -9406605.969 -22496694.275 10 0 60230 63900.00000 0 -6200490.773 -11831514.207 -21726775.554 10 0 60230 64800.00000 0 -5169230.570 -14227372.247 -20534736.857 10 0 60230 65700.00000 0 -4368405.162 -16528285.274 -18944024.369 10 0 60230 66600.00000 0 -3793472.097 -18669658.753 -16985779.857 10 0 60230 67500.00000 0 -3428212.715 -20590726.556 -14698218.315 10 0 60230 68400.00000 0 -3245645.669 -22236929.413 -12125873.091 10 0 60230 69300.00000 0 -3209397.895 -23562046.128 -9318723.921 10 0 60230 70200.00000 0 -3275473.352 -24529990.651 -6331225.159 10 0 60230 71100.00000 0 -3394343.663 -25116202.160 -3221253.047 10 0 60230 72000.00000 0 -3513271.929 -25308572.300 -48992.166 10 0 60230 72900.00000 0 -3578771.781 -25107872.837 3124217.993 10 0 60230 73800.00000 0 -3539098.516 -24527667.552 6237054.960 10 0 60230 74700.00000 0 -3346668.243 -23593713.192 9229382.131 10 0 60230 75600.00000 0 -2960304.141 -22342875.107 12043393.302 10 0 60230 76500.00000 0 -2347216.236 -20821602.796 14624712.279 10 0 60230 77400.00000 0 -1484632.059 -19084028.316 16923427.809 10 0 60230 78300.00000 0 -361009.828 -17189765.696 18895045.357 10 0 60230 79200.00000 0 1023217.308 -15201501.435 20501338.661 10 0 60230 80100.00000 0 2655398.376 -13182474.677 21711085.672 10 0 60230 81000.00000 0 4510935.248 -11193950.075 22500675.314 10 0 60230 81900.00000 0 6554058.180 -9292786.858 22854573.527 10 0 60230 82800.00000 0 8739076.985 -7529203.977 22765639.203 10 0 60230 83700.00000 0 11012058.960 -5944833.497 22235282.984 10 0 60230 84600.00000 0 13312866.955 -4571143.096 21273464.384 10 0 60230 85500.00000 0 15577475.528 -3428293.739 19898525.390 10 0 60231 0.00000 0 17740470.806 -2524481.127 18136861.755 10 0 60231 900.00000 0 19737632.446 -1855789.154 16022435.019 10 0 60231 1800.00000 0 21508487.631 -1406563.971 13596134.974 10 0 60231 2700.00000 0 22998733.875 -1150292.587 10904999.895 10 0 60231 3600.00000 0 24162425.186 -1050951.152 8001310.534 10 0 60231 4500.00000 0 24963829.298 -1064765.979 4941573.892 10 0 60231 5400.00000 0 25378875.679 -1142312.690 1785416.649 10 0 60231 6300.00000 0 25396131.201 -1230863.683 -1405589.524 10 0 60231 7200.00000 0 25017260.458 -1276882.774 -4569146.435 10 0 60231 8100.00000 0 24256949.834 -1228558.945 -7643465.996 10 0 60231 9000.00000 0 23142297.764 -1038269.095 -10568498.630 10 0 60231 9900.00000 0 21711696.863 -664862.488 -13287127.109 10 0 60231 10800.00000 0 20013255.791 -75667.382 -15746300.311 10 0 60231 11700.00000 0 18102828.661 751867.537 -17898082.896 10 0 60231 12600.00000 0 16041736.725 1828968.150 -19700599.007 10 0 60231 13500.00000 0 13894280.017 3154818.437 -21118850.823 10 0 60231 14400.00000 0 11725145.168 4716363.246 -22125395.919 10 0 60231 15300.00000 0 9596819.472 6488638.494 -22700870.694 10 0 60231 16200.00000 0 7567120.176 8435614.284 -22834350.767 10 0 60231 17100.00000 0 5686942.282 10511514.689 -22523542.751 10 0 60231 18000.00000 0 3998318.069 12662557.791 -21774805.455 10 0 60231 18900.00000 0 2532867.649 14829042.250 -20603001.892 10 0 60231 19800.00000 0 1310702.804 16947692.477 -19031186.811 10 0 60231 20700.00000 0 339826.944 18954164.122 -17090137.468 10 0 60231 21600.00000 0 -383947.022 20785605.456 -14817738.149 10 0 60231 22500.00000 0 -876560.763 22383168.424 -12258231.486 10 0 60231 23400.00000 0 -1164777.912 23694365.664 -9461351.862 10 0 60231 24300.00000 0 -1284796.516 24675176.658 -6481358.122 10 0 60231 25200.00000 0 -1280466.866 25291816.858 -3375984.342 10 0 60231 26100.00000 0 -1201190.979 25522097.783 -205328.786 10 0 60231 27000.00000 0 -1099592.717 25356323.098 2969298.094 10 0 60231 27900.00000 0 -1029056.616 24797684.824 6086545.199 10 0 60231 28800.00000 0 -1041238.489 23862144.272 9086190.292 10 0 60231 29700.00000 0 -1183651.762 22577803.341 11910286.236 10 0 60231 30600.00000 0 -1497430.119 20983792.415 14504263.303 10 0 60231 31500.00000 0 -2015359.723 19128720.698 16817967.722 10 0 60231 32400.00000 0 -2760263.184 17068752.365 18806617.964 10 0 60231 33300.00000 0 -3743803.207 14865387.034 20431661.598 10 0 60231 34200.00000 0 -4965756.773 12583034.975 21661517.231 10 0 60231 35100.00000 0 -6413791.763 10286485.784 22472187.892 10 0 60231 36000.00000 0 -8063757.525 8038373.763 22847734.209 10 0 60231 36900.00000 0 -9880479.988 5896743.627 22780597.876 10 0 60231 37800.00000 0 -11819031.259 3912816.432 22271768.275 10 0 60231 38700.00000 0 -13826423.942 2129047.881 21330787.582 10 0 60231 39600.00000 0 -15843662.523 577559.765 19975592.375 10 0 60231 40500.00000 0 -17808068.796 -720989.749 18232192.661 10 0 60231 41400.00000 0 -19655786.120 -1758048.895 16134192.193 10 0 60231 42300.00000 0 -21324358.827 -2537300.166 13722157.205 10 0 60231 43200.00000 0 -22755278.925 -3074266.699 11042843.874 10 0 60231 44100.00000 0 -23896392.571 -3395412.761 8148298.067 10 0 60231 45000.00000 0 -24704063.688 -3536775.596 5094844.110 10 0 60231 45900.00000 0 -25145001.705 -3542186.383 1941982.173 10 0 60231 46800.00000 0 -25197674.095 -3461156.175 -1248783.596 10 0 60231 47700.00000 0 -24853241.882 -3346517.698 -4415161.982 10 0 60231 48600.00000 0 -24115976.691 -3251924.949 -7495311.039 10 0 60231 49500.00000 0 -23003140.331 -3229319.123 -10429067.518 10 0 60231 50400.00000 0 -21544331.317 -3326471.057 -13159143.000 10 0 60231 51300.00000 0 -19780325.957 -3584707.127 -15632261.165 10 0 60231 52200.00000 0 -17761463.612 -4036917.459 -17800212.109 10 0 60231 53100.00000 0 -15545645.428 -4705932.767 -19620801.683 10 0 60231 54000.00000 0 -13196032.291 -5603339.837 -21058676.576 10 0 60231 54900.00000 0 -10778540.250 -6728786.397 -22086008.911 10 0 60231 55800.00000 0 -8359239.843 -8069804.706 -22683027.494 10 0 60231 56700.00000 0 -6001769.058 -9602160.762 -22838386.385 10 0 60231 57600.00000 0 -3764868.271 -11290713.523 -22549365.105 10 0 60231 58500.00000 0 -1700139.593 -13090746.892 -21821898.259 10 0 60231 59400.00000 0 149877.295 -14949717.455 -20670435.862 10 0 60231 60300.00000 0 1753234.680 -16809343.744 -19117638.871 10 0 60231 61200.00000 0 3089650.664 -18607948.894 -17193917.494 10 0 60231 62100.00000 0 4151085.695 -20282958.436 -14936822.679 10 0 60231 63000.00000 0 4941801.075 -21773448.997 -12390303.662 10 0 60231 63900.00000 0 5477900.306 -23022642.045 -9603846.805 10 0 60231 64800.00000 0 5786375.526 -23980239.529 -6631512.813 10 0 60231 65700.00000 0 5903701.504 -24604505.226 -3530891.057 10 0 60231 66600.00000 0 5874038.115 -24864006.345 -361991.042 10 0 60231 67500.00000 0 5747117.971 -24738944.221 2813908.136 10 0 60231 68400.00000 0 5575908.474 -24222019.922 5935428.928 10 0 60231 69300.00000 0 5414146.479 -23318799.720 8942265.501 10 0 60231 70200.00000 0 5313848.644 -22047565.831 11776331.672 10 0 60231 71100.00000 0 5322901.219 -20438658.724 14382865.883 10 0 60231 72000.00000 0 5482829.682 -18533337.928 16711473.361 10 0 60231 72900.00000 0 5826841.094 -16382207.657 18717086.871 10 0 60231 73800.00000 0 6378220.993 -14043271.122 20360828.849 10 0 60231 74700.00000 0 7149152.236 -11579692.407 21610759.318 10 0 60231 75600.00000 0 8140006.161 -9057356.639 22442495.878 10 0 60231 76500.00000 0 9339137.344 -6542327.470 22839694.008 10 0 60231 77400.00000 0 10723192.763 -4098305.355 22794378.081 10 0 60231 78300.00000 0 12257925.199 -1784190.438 22307115.819 10 0 60231 79200.00000 0 13899479.915 348149.916 21387031.404 10 0 60231 80100.00000 0 15596103.841 2255816.710 20051655.125 10 0 60231 81000.00000 0 17290208.578 3906437.416 18326610.317 10 0 60231 81900.00000 0 18920703.132 5279281.089 16245141.323 10 0 60231 82800.00000 0 20425500.081 6365882.935 13847489.446 10 0 60231 83700.00000 0 21744090.699 7170151.058 11180127.029 10 0 60231 84600.00000 0 22820080.498 7707949.841 8294863.101 10 0 60231 85500.00000 0 23603577.359 8006176.647 5247837.126 99